Location: Potomac
(46.8816°N, 113.5795°W)
Time: 12:03:21
(UTC+00:00)

AO-91 - Pass Details

Date: 01 July 2022
Orbit: 450 x 797 km, 97.7° (Epoch: 09 August)

Event Time Altitude Azimuth Distance (km) Brightness Sun altitude
Rises 07:19:42 0° 0° (N) 2,544 ? -19.9°
Reaches altitude 10° 07:22:07 10° 345° (NNW) 1,627 ? -19.9°
Maximum altitude 07:24:47 21° 294° (WNW) 1,074 ? -20.0°
Enters shadow 07:26:09 17° 261° (W) 1,232 ? -20.0°
